Solomons Island, MD NWLON current weather conditions

sailwx.info

Wind from 323 at 3 knots gusting 4

Air temperature -0.0° C
Water temperature 5.6° C

Last reported at 2020-Jan-23 14:00 UTC.
Time now 2020-Jan-23 14:32 UTC

Location: N 38°19' W 076°27'.
View on Google Maps.

See reports from other nearby stations

  
Tides and Currents Weather Stations Pressure Air Temp Water Temp Dewpoint Dewpoint Depression Visibility Wind Speed Wind Dir Waves Ship Positions
date/time (UTC)wind fromknots sea level pressurealtimeterstation pressurevisibilityair tempwater tempwave heightnotes
2020-Jan-23 14:00 323 3 gusting 4 -0.0 5.6
2020-Jan-23 13:42 325 3 gusting 5 -0.6 5.6
2020-Jan-23 13:36 335 3 gusting 5 -0.6 5.6
2020-Jan-23 13:30 321 3 gusting 5 -1.1 5.6
2020-Jan-23 13:24 320 3 gusting 5 -1.1 5.6
2020-Jan-23 13:18 335 4 gusting 5 -1.1 5.6
2020-Jan-23 13:12 338 3 gusting 3 -1.7 5.6
2020-Jan-23 13:06 343 2 gusting 3 -1.7 5.6
2020-Jan-23 13:00 338 2 gusting 3 -1.7 5.6
2020-Jan-23 12:54 348 3 gusting 3 -1.7 5.6
2020-Jan-23 12:48 342 2 gusting 3 -1.1 5.6
2020-Jan-23 12:42 339 3 gusting 3 -1.1 5.6
2020-Jan-23 12:36 327 2 gusting 3 -1.1 5.6
2020-Jan-23 12:30 327 2 gusting 3 -1.1 5.6
2020-Jan-23 12:24 328 1 gusting 2 -1.1 5.6
2020-Jan-23 12:18 313 1 gusting 2 -1.1 5.6
2020-Jan-23 12:12 323 1 gusting 2 -1.1 5.6
2020-Jan-23 12:06 295 2 gusting 3 -1.1 5.6
2020-Jan-23 12:00 290 1 gusting 3 -1.1 5.6
2020-Jan-23 11:54 259 2 gusting 3 -1.1 5.6
2020-Jan-23 11:48 265 2 gusting 3 -1.1 5.6
2020-Jan-23 11:42 282 2 gusting 3 -1.1 5.6
2020-Jan-23 11:36 298 2 gusting 3 -1.1 5.6
2020-Jan-23 11:30 294 2 gusting 4 -1.7 5.6
2020-Jan-23 11:24 301 1 gusting 3 -1.7 5.6
2020-Jan-23 11:18 314 1 gusting 2 -1.7 5.6
2020-Jan-23 11:12 352 1 gusting 2 -1.7 5.6
2020-Jan-23 11:06 341 2 gusting 3 -2.2 5.6
2020-Jan-23 11:00 347 3 gusting 3 -2.2 5.6
2020-Jan-23 10:54 350 2 gusting 3 -2.2 5.6
2020-Jan-23 10:48 342 3 gusting 4 -2.2 5.6
2020-Jan-23 10:42 341 3 gusting 3 -1.7 5.6
2020-Jan-23 10:36 342 3 gusting 3 -1.7 5.6
2020-Jan-23 10:30 350 2 gusting 2 -1.7 5.6
2020-Jan-23 10:24 343 1 gusting 2 -1.7 5.6
2020-Jan-23 10:18 337 1 gusting 2 -1.7 5.6
2020-Jan-23 10:12 340 1 gusting 1 -1.7 5.6
2020-Jan-23 10:06 318 1 gusting 2 -1.7 5.6
2020-Jan-23 10:00 312 1 gusting 3 -1.7 5.6
2020-Jan-23 09:54 337 3 gusting 3 -1.7 5.6
2020-Jan-23 09:48 348 3 gusting 3 -2.2 5.6
2020-Jan-23 09:42 336 2 gusting 3 -1.7 5.6
2020-Jan-23 09:36 344 3 gusting 4 -2.2 5.6
2020-Jan-23 09:30 349 4 gusting 4 -1.7 5.6
2020-Jan-23 09:24 345 4 gusting 5 -1.7 5.6
2020-Jan-23 09:18 334 3 gusting 3 -1.7 5.6
2020-Jan-23 09:12 326 2 gusting 3 -1.7 5.6
2020-Jan-23 09:06 337 2 gusting 3 -1.7 5.6
2020-Jan-23 09:00 326 1 gusting 2 -1.7 5.6
2020-Jan-23 08:54 320 1 gusting 2 -1.7 5.6
2020-Jan-23 08:48 328 1 gusting 2 -1.7 5.6
2020-Jan-23 08:42 344 1 gusting 2 -1.7 5.6
2020-Jan-23 08:36 334 2 gusting 2 -1.7 5.6
2020-Jan-23 08:30 334 2 gusting 3 -1.1 5.6
2020-Jan-23 08:24 333 1 gusting 2 -1.1 5.6
2020-Jan-23 08:18 330 1 gusting 2 -1.1 5.6
2020-Jan-23 08:12 318 2 gusting 3 -1.1 5.6
2020-Jan-23 08:06 319 3 gusting 4 -1.7 5.6
2020-Jan-23 08:00 328 3 gusting 4 -1.7 5.6
2020-Jan-23 07:54 331 3 gusting 5 -1.7 5.6
2020-Jan-23 07:48 337 4 gusting 4 -1.7 5.6
2020-Jan-23 07:42 327 3 gusting 4 -1.7 5.6
2020-Jan-23 07:36 329 3 gusting 4 -1.7 5.6
2020-Jan-23 07:30 327 3 gusting 4 -1.7 5.6
2020-Jan-23 07:24 327 2 gusting 4 -1.7 5.6
2020-Jan-23 07:18 336 3 gusting 3 -1.7 5.6
2020-Jan-23 07:12 340 3 gusting 3 -1.7 5.6
2020-Jan-23 07:06 343 2 gusting 3 -1.1 5.6
2020-Jan-23 07:00 320 2 gusting 2 -1.1 5.6
2020-Jan-23 06:54 347 1 gusting 2 -1.1 5.6
2020-Jan-23 06:48 321 1 gusting 1 -1.1 5.6
2020-Jan-23 06:42 345 0 gusting 0 -1.1 5.6
2020-Jan-23 06:36 331 -1.1 5.6
2020-Jan-23 06:30 316 1 gusting 2 -1.1 5.6
2020-Jan-23 06:24 335 2 gusting 3 -1.1 5.6
2020-Jan-23 06:18 346 2 gusting 3 -1.1 5.6
2020-Jan-23 06:12 337 3 gusting 4 -1.1 5.6
2020-Jan-23 06:06 340 4 gusting 4 -0.6 5.6
2020-Jan-23 06:00 338 3 gusting 3 -0.6 5.6
2020-Jan-23 05:54 338 1 gusting 1 -0.6 5.6
2020-Jan-23 05:48 289 0 gusting 1 -0.6 5.6
2020-Jan-23 05:42 281 1 gusting 3 -0.6 5.6
2020-Jan-23 05:36 309 1 gusting 3 -0.6 5.6
2020-Jan-23 05:30 322 3 gusting 4 -0.6 5.6
2020-Jan-23 05:24 323 3 gusting 4 -0.6 5.6
2020-Jan-23 05:18 311 2 gusting 4 -0.6 5.6
2020-Jan-23 05:12 306 3 gusting 4 -0.6 5.6
2020-Jan-23 05:06 314 3 gusting 4 -0.6 5.6
2020-Jan-23 05:00 316 2 gusting 4 -0.6 5.6
2020-Jan-23 04:54 334 2 gusting 3 -0.6 5.6
2020-Jan-23 04:48 336 2 gusting 3 -0.6 5.6
2020-Jan-23 04:42 339 3 gusting 3 -0.6 5.6
2020-Jan-23 04:36 302 1 gusting 3 -0.0 5.6
2020-Jan-23 04:30 328 2 gusting 3 -0.0 5.6
2020-Jan-23 04:24 326 1 gusting 2 -0.0 5.6
2020-Jan-23 04:18 028 -0.0 5.6
2020-Jan-23 04:12 318 -0.0 5.6
2020-Jan-23 04:06 329 0 gusting 1 -0.0 5.6
2020-Jan-23 04:00 320 1 gusting 1 -0.0 5.6
2020-Jan-23 03:54 271 -0.0 5.6
2020-Jan-23 03:48 283 0 gusting 1 -0.0 5.6
2020-Jan-23 03:42 286 0 gusting 1 -0.0 5.6
2020-Jan-23 03:36 308 0 gusting 1 -0.0 5.6
2020-Jan-23 03:30 335 -0.0 5.6
2020-Jan-23 03:24 326 1 gusting 1 -0.0 5.6
2020-Jan-23 03:18 310 0 gusting 1 -0.0 5.6
2020-Jan-23 03:12 329 1 gusting 2 -0.0 5.6
2020-Jan-23 03:06 324 1 gusting 2 -0.0 5.6
2020-Jan-23 03:00 312 1 gusting 2 -0.0 5.6
2020-Jan-23 02:54 343 0 gusting 1 -0.0 5.6
2020-Jan-23 02:48 323 1 gusting 1 -0.0 5.6
2020-Jan-23 02:42 325 -0.6 5.6
2020-Jan-23 02:36 332 1 gusting 2 -0.6 5.6
2020-Jan-23 02:30 345 2 gusting 3 -0.6 5.6
2020-Jan-23 02:24 332 3 gusting 4 -0.6 5.6
2020-Jan-23 02:18 338 3 gusting 4 -0.6 5.6
2020-Jan-23 02:12 333 3 gusting 4 -0.6 5.6
2020-Jan-23 02:06 342 3 gusting 3 -0.0 5.6
2020-Jan-23 02:00 353 1 gusting 1 -0.0 5.6
2020-Jan-23 01:54 326 0 gusting 2 -0.0 5.6
2020-Jan-23 01:48 333 1 gusting 1 -0.0 5.6
2020-Jan-23 01:42 342 1 gusting 1 -0.0 5.6
2020-Jan-23 01:36 332 1 gusting 1 0.6 5.6
2020-Jan-23 01:30 343 1 gusting 1 0.6 5.6
2020-Jan-23 01:24 347 0 gusting 1 0.6 5.6
2020-Jan-23 01:18 327 0 gusting 0 0.6 5.6
2020-Jan-23 01:12 332 0 gusting 1 0.6 5.6
2020-Jan-23 01:06 331 0.6 5.6
2020-Jan-23 01:00 331 0.6 5.6
2020-Jan-23 00:54 328 0 gusting 2 0.6 5.6
2020-Jan-23 00:48 338 2 gusting 2 0.6 5.6
2020-Jan-23 00:42 338 1 gusting 2 0.6 5.6
2020-Jan-23 00:36 345 1 gusting 2 -0.0 5.6
2020-Jan-23 00:30 338 1 gusting 2 -0.0 5.6
2020-Jan-23 00:24 332 1 gusting 2 -0.0 5.6
2020-Jan-23 00:18 339 1 gusting 2 0.6 5.6
2020-Jan-23 00:12 339 2 gusting 3 0.6 5.6
2020-Jan-23 00:06 336 2 gusting 3 0.6 5.6
2020-Jan-23 00:00 337 2 gusting 3 0.6 5.6
2020-Jan-22 23:54 334 3 gusting 3 0.6 5.6
2020-Jan-22 23:48 332 3 gusting 3 1.1 5.6
2020-Jan-22 23:42 328 1 gusting 1 1.1 5.6
2020-Jan-22 23:36 333 0 gusting 1 1.7 5.6
2020-Jan-22 23:30 022 0 gusting 1 1.7 5.6
2020-Jan-22 23:24 354 1 gusting 3 1.7 5.6
2020-Jan-22 23:18 002 1 gusting 2 1.7 5.6
2020-Jan-22 23:12 360 1 gusting 1 1.7 5.6
2020-Jan-22 23:06 348 0 gusting 1 1.7 5.6
2020-Jan-22 23:00 357 1 gusting 2 2.2 5.6
2020-Jan-22 22:54 343 0 gusting 0 1.7 5.6
2020-Jan-22 22:48 018 0 gusting 0 1.7 5.6
2020-Jan-22 22:42 084 0 gusting 1 1.7 5.6
2020-Jan-22 22:36 068 1 gusting 2 1.7 5.6
2020-Jan-22 22:30 044 2 gusting 4 1.7 5.6
2020-Jan-22 22:24 019 3 gusting 5 1.7 5.6
2020-Jan-22 22:18 019 4 gusting 5 1.7 5.6
2020-Jan-22 22:12 018 4 gusting 6 2.2 6.1
2020-Jan-22 22:06 032 5 gusting 6 2.2 6.1
2020-Jan-22 22:00 036 5 gusting 6 2.2 6.1
2020-Jan-22 21:54 016 5 gusting 6 2.2 6.1
2020-Jan-22 21:48 009 4 gusting 7 2.2 6.1
2020-Jan-22 21:42 004 6 gusting 6 2.2 6.1
2020-Jan-22 21:36 018 5 gusting 7 2.2 6.1
2020-Jan-22 21:30 022 6 gusting 7 2.2 6.1
2020-Jan-22 21:24 033 6 gusting 6 2.8 6.1
2020-Jan-22 21:18 047 5 gusting 6 2.8 6.1
2020-Jan-22 21:12 049 5 gusting 6 2.8 6.1
2020-Jan-22 21:06 059 6 gusting 7 2.8 6.1
2020-Jan-22 21:00 035 4 gusting 6 2.8 6.1
2020-Jan-22 20:54 036 5 gusting 6 2.8 6.1
2020-Jan-22 20:48 030 5 gusting 6 2.8 6.1
2020-Jan-22 20:42 042 6 gusting 8 2.8 6.1
2020-Jan-22 20:36 068 1 gusting 4 2.8 6.1
2020-Jan-22 20:30 093 4 gusting 5 2.8 6.1
2020-Jan-22 20:24 125 2 gusting 6 2.8 6.1
2020-Jan-22 20:18 104 4 gusting 6 2.8 5.6
2020-Jan-22 20:12 109 5 gusting 6 2.2 5.6
2020-Jan-22 20:06 099 4 gusting 7 2.2 5.6
2020-Jan-22 20:00 101 6 gusting 7 2.2 5.6
2020-Jan-22 19:54 106 4 gusting 6 2.2 5.6
2020-Jan-22 19:48 099 6 gusting 6 1.7 5.6
2020-Jan-22 19:42 099 1 gusting 5 2.2 5.6
2020-Jan-22 19:36 114 4 gusting 5 2.2 5.6
2020-Jan-22 19:30 139 3 gusting 4 2.2 5.6
2020-Jan-22 19:24 238 2 gusting 4 3.9 5.6
2020-Jan-22 19:18 284 1 gusting 3 3.3 5.6
2020-Jan-22 19:12 330 0 gusting 3 3.3 5.6
2020-Jan-22 19:06 264 2 gusting 5 4.4 5.6
2020-Jan-22 19:00 258 3 gusting 5 3.9 5.6
2020-Jan-22 18:54 263 3 gusting 6 3.3 5.6
2020-Jan-22 18:48 260 4 gusting 6 3.3 5.6
2020-Jan-22 18:42 261 4 gusting 6 3.3 5.6
2020-Jan-22 18:36 275 3 gusting 6 2.2 5.6
2020-Jan-22 18:30 306 5 gusting 6 2.2 5.6
2020-Jan-22 18:24 322 5 gusting 7 2.2 5.6
2020-Jan-22 18:18 318 4 gusting 7 2.2 5.6
2020-Jan-22 18:12 299 4 gusting 6 1.7 5.6
2020-Jan-22 18:06 292 5 gusting 7 1.7 5.6
2020-Jan-22 18:00 293 6 gusting 8 1.7 5.6
2020-Jan-22 17:54 279 6 gusting 9 1.7 5.6
2020-Jan-22 17:48 306 5 gusting 8 1.7 5.6
2020-Jan-22 17:42 306 5 gusting 7 1.7 5.6
2020-Jan-22 17:36 294 6 gusting 8 1.1 5.6
2020-Jan-22 17:30 333 6 gusting 9 1.1 5.6
2020-Jan-22 17:24 343 3 gusting 5 1.1 5.6
2020-Jan-22 17:18 320 3 gusting 4 1.1 5.6
2020-Jan-22 17:12 338 4 gusting 6 1.1 5.6
2020-Jan-22 17:06 316 3 gusting 5 1.1 5.6
2020-Jan-22 17:00 026 2 gusting 5 1.1 5.6
2020-Jan-22 16:54 331 4 gusting 6 1.1 5.6
2020-Jan-22 16:48 347 3 gusting 5 0.6 5.6
2020-Jan-22 16:42 345 3 gusting 5 0.6 5.6
2020-Jan-22 16:36 305 1 gusting 2 1.1 5.6
2020-Jan-22 16:30 141 0 gusting 1 1.1 5.6
2020-Jan-22 16:24 093 1 gusting 4 0.6 5.6
2020-Jan-22 16:18 025 3 gusting 4 0.6 5.6
2020-Jan-22 16:12 279 0 gusting 2 1.1 5.6
2020-Jan-22 16:06 083 0 gusting 3 0.6 5.6
2020-Jan-22 16:00 041 4 gusting 6 0.6 5.6
2020-Jan-22 15:54 051 0.6 5.6
2020-Jan-22 15:48 007 5 gusting 6 -0.0 5.6
2020-Jan-22 15:42 012 3 gusting 6 -0.0 5.6
2020-Jan-22 15:36 346 2 gusting 5 -0.0 5.6
2020-Jan-22 15:30 334 2 gusting 6 -0.0 5.6
2020-Jan-22 15:24 331 4 gusting 6 -0.0 5.6
2020-Jan-22 15:18 330 5 gusting 7 -0.6 5.6
2020-Jan-22 15:12 003 5 gusting 6 -0.6 5.6
2020-Jan-22 15:06 331 5 gusting 7 -0.6 5.6
2020-Jan-22 15:00 331 5 gusting 7 -0.6 5.6
2020-Jan-22 14:54 326 6 gusting 7 -0.6 5.6
2020-Jan-22 14:48 338 6 gusting 7 -1.1 5.6
2020-Jan-22 14:42 343 5 gusting 7 -1.1 5.6
2020-Jan-22 14:36 335 5 gusting 7 -1.1 5.6
2020-Jan-22 14:30 326 6 gusting 6 -1.7 5.6
2020-Jan-22 14:24 333 4 gusting 6 -1.7 5.6
2020-Jan-22 14:18 328 5 gusting 6 -1.7 5.6
2020-Jan-22 14:12 329 5 gusting 6 -1.7 5.6
2020-Jan-22 14:06 345 6 gusting 7 -1.7 5.6
2020-Jan-22 14:00 340 6 gusting 7 -1.7 5.6
2020-Jan-22 13:54 330 6 gusting 7 -1.7 5.6
2020-Jan-22 13:48 325 6 gusting 9 -1.7 5.6
2020-Jan-22 13:42 325 6 gusting 9 -2.2 5.6
2020-Jan-22 13:36 326 7 gusting 10 -2.2 5.6
2020-Jan-22 13:30 336 6 gusting 7 -1.7 5.6
2020-Jan-22 13:24 330 6 gusting 8 -2.2 5.6
2020-Jan-22 13:18 331 5 gusting 6 -2.2 5.6
2020-Jan-22 13:12 324 5 gusting 6 -2.2 5.6
2020-Jan-22 13:06 315 3 gusting 7 -2.2 5.6
2020-Jan-22 13:00 315 5 gusting 6 -2.2 5.6
2020-Jan-22 12:54 329 4 gusting 6 -2.8 5.6
2020-Jan-22 12:48 325 4 gusting 7 -2.8 5.6
2020-Jan-22 12:42 331 5 gusting 6 -2.8 5.6
2020-Jan-22 12:36 330 4 gusting 6 -2.8 5.6
2020-Jan-22 12:30 325 5 gusting 6 -3.3 5.6
2020-Jan-22 12:24 328 6 gusting 7 -3.3 5.6
2020-Jan-22 12:18 335 5 gusting 7 -3.3 5.6
2020-Jan-22 12:12 330 6 gusting 7 -3.3 5.6
2020-Jan-22 12:06 338 5 gusting 7 -3.3 5.6
2020-Jan-22 12:00 327 6 gusting 7 -3.3 5.6
2020-Jan-22 11:54 321 5 gusting 6 -3.3 5.6
2020-Jan-22 11:48 325 4 gusting 6 -3.3 5.6
2020-Jan-22 11:42 337 5 gusting 6 -3.3 5.6
2020-Jan-22 11:36 341 5 gusting 6 -3.3 5.6
2020-Jan-22 11:30 340 4 gusting 5 -3.3 5.6
2020-Jan-22 11:24 341 4 gusting 5 -3.3 5.6
2020-Jan-22 11:18 345 4 gusting 6 -2.8 5.6
2020-Jan-22 11:12 343 5 gusting 6 -2.8 5.6
2020-Jan-22 11:06 330 5 gusting 6 -2.8 5.6
2020-Jan-22 11:00 336 6 gusting 7 -2.8 5.6
2020-Jan-22 10:54 342 7 gusting 7 -2.8 5.6
2020-Jan-22 10:48 336 7 gusting 8 -2.8 5.6
2020-Jan-22 10:42 340 6 gusting 7 -2.8 5.6
2020-Jan-22 10:36 342 5 gusting 6 -2.8 5.6
2020-Jan-22 10:30 343 6 gusting 8 -2.8 5.6
2020-Jan-22 10:24 342 6 gusting 7 -2.8 5.6
2020-Jan-22 10:18 339 6 gusting 7 -2.8 5.6
2020-Jan-22 10:12 344 6 gusting 7 -2.8 5.6
2020-Jan-22 10:06 345 6 gusting 7 -2.8 5.6
2020-Jan-22 10:00 336 5 gusting 6 -2.8 5.6
2020-Jan-22 09:54 340 5 gusting 6 -2.8 5.6
2020-Jan-22 09:48 336 4 gusting 6 -2.8 5.6
2020-Jan-22 09:42 349 5 gusting 6 -2.8 5.6
2020-Jan-22 09:36 338 6 gusting 9 -2.8 5.6
2020-Jan-22 09:30 335 6 gusting 9 -2.8 5.6
2020-Jan-22 09:24 337 7 gusting 9 -2.8 5.6
2020-Jan-22 09:18 332 6 gusting 8 -2.8 5.6
2020-Jan-22 09:12 336 6 gusting 8 -2.8 5.6
2020-Jan-22 09:06 341 6 gusting 7 -2.8 5.6
2020-Jan-22 09:00 342 6 gusting 7 -2.2 5.6
2020-Jan-22 08:54 338 6 gusting 8 -2.8 5.6
2020-Jan-22 08:48 343 6 gusting 8 -2.8 5.6
2020-Jan-22 08:42 342 5 gusting 8 -2.2 5.6
2020-Jan-22 08:36 338 6 gusting 11 -2.2 5.6
2020-Jan-22 08:30 334 7 gusting 10 -2.2 5.6
2020-Jan-22 08:24 339 6 gusting 9 -2.2 5.6
2020-Jan-22 08:18 336 7 gusting 11 -2.2 5.6
2020-Jan-22 08:12 336 7 gusting 9 -2.2 5.6
2020-Jan-22 08:06 337 7 gusting 9 -2.2 5.6
2020-Jan-22 08:00 336 7 gusting 9 -2.2 5.6
2020-Jan-22 07:54 327 7 gusting 9 -2.2 5.6
2020-Jan-22 07:48 329 6 gusting 10 -2.2 5.0
2020-Jan-22 07:42 327 7 gusting 10 -2.2 5.0
2020-Jan-22 07:36 331 7 gusting 11 -2.2 5.0
2020-Jan-22 07:30 330 6 gusting 9 -2.2 5.0
2020-Jan-22 07:24 322 5 gusting 8 -2.2 5.0
2020-Jan-22 07:18 328 6 gusting 8 -1.7 5.0
2020-Jan-22 07:12 325 6 gusting 7 -2.2 5.0
2020-Jan-22 07:06 327 6 gusting 9 -1.7 5.0
2020-Jan-22 07:00 326 6 gusting 8 -1.7 5.0
2020-Jan-22 06:54 328 6 gusting 9 -1.7 5.0
2020-Jan-22 06:48 324 6 gusting 9 -1.7 5.0
2020-Jan-22 06:42 324 6 gusting 9 -1.7 5.6
2020-Jan-22 06:36 321 6 gusting 7 -2.2 5.6
2020-Jan-22 06:30 325 5 gusting 8 -1.7 5.6
2020-Jan-22 06:24 326 6 gusting 8 -1.7 5.6
2020-Jan-22 06:18 326 6 gusting 7 -1.7 5.6
2020-Jan-22 06:12 334 6 gusting 7 -1.7 5.6
2020-Jan-22 06:06 334 6 gusting 8 -1.7 5.6
2020-Jan-22 06:00 324 5 gusting 7 -1.7 5.6
2020-Jan-22 05:54 332 6 gusting 8 -1.7 5.6
2020-Jan-22 05:48 327 5 gusting 9 -1.7 5.6
2020-Jan-22 05:42 328 6 gusting 10 -1.7 5.6
2020-Jan-22 05:36 334 7 gusting 11 -1.7 5.6
2020-Jan-22 05:30 329 7 gusting 11 -1.7 5.6
2020-Jan-22 05:24 335 7 gusting 12 -1.1 5.6
2020-Jan-22 05:18 337 9 gusting 11 -1.1 5.6
2020-Jan-22 05:12 332 6 gusting 11 -1.1 5.6
2020-Jan-22 05:06 336 7 gusting 10 -1.1 5.6
2020-Jan-22 05:00 336 6 gusting 8 -1.1 5.6
2020-Jan-22 04:54 337 7 gusting 9 -1.1 5.6
2020-Jan-22 04:48 338 8 gusting 10 -1.1 5.6
2020-Jan-22 04:42 338 7 gusting 10 -1.1 5.6
2020-Jan-22 04:36 338 8 gusting 11 -1.1 5.6
2020-Jan-22 04:30 338 8 gusting 11 -1.1 5.6
2020-Jan-22 04:24 333 7 gusting 11 -1.1 5.6
2020-Jan-22 04:18 327 7 gusting 11 -1.1 5.6
2020-Jan-22 04:12 331 6 gusting 10 -1.1 5.6
2020-Jan-22 04:06 336 6 gusting 10 -1.1 5.6
2020-Jan-22 04:00 333 8 gusting 11 -1.1 5.6
2020-Jan-22 03:54 339 7 gusting 11 -1.1 5.6
2020-Jan-22 03:48 337 7 gusting 11 -1.1 5.6
2020-Jan-22 03:42 339 7 gusting 11 -1.1 5.6
2020-Jan-22 03:36 340 8 gusting 10 -1.1 5.6
2020-Jan-22 03:30 340 8 gusting 10 -0.6 5.6
2020-Jan-22 03:24 343 9 gusting 12 -0.6 5.6
2020-Jan-22 03:18 350 8 gusting 10 -1.1 5.6
2020-Jan-22 03:12 355 7 gusting 11 -1.1 5.6
2020-Jan-22 03:06 356 6 gusting 8 -0.6 5.6
2020-Jan-22 03:00 359 7 gusting 9 -0.6 5.6
2020-Jan-22 02:54 -0.6 5.6
2020-Jan-22 02:48 357 7 gusting 10 -0.6 5.6
2020-Jan-22 02:42 347 7 gusting 11 -0.6 5.6
2020-Jan-22 02:36 345 7 gusting 10 -0.6 5.6
2020-Jan-22 02:30 341 7 gusting 9 -0.6 5.6
2020-Jan-22 02:24 340 7 gusting 12 -0.0 5.6
2020-Jan-22 02:18 342 8 gusting 11 -0.0 5.6
2020-Jan-22 02:12 336 9 gusting 10 -0.0 5.6
2020-Jan-22 02:06 341 7 gusting 11 -0.0 5.6
2020-Jan-22 02:00 338 7 gusting 9 -0.0 5.6
2020-Jan-22 01:54 333 6 gusting 9 -0.0 5.6
2020-Jan-22 01:48 346 6 gusting 7 -0.0 5.6
2020-Jan-22 01:42 346 6 gusting 7 -0.0 5.6
2020-Jan-22 01:36 348 6 gusting 7 -0.0 5.6
2020-Jan-22 01:30 350 6 gusting 7 -0.0 5.6
2020-Jan-22 01:24 349 6 gusting 7 -0.0 5.6
2020-Jan-22 01:18 347 6 gusting 8 -0.0 5.6
2020-Jan-22 01:12 345 6 gusting 8 0.6 5.6
2020-Jan-22 01:06 346 6 gusting 7 -0.0 5.6
2020-Jan-22 01:00 348 5 gusting 7 0.6 5.6
2020-Jan-22 00:54 354 6 gusting 7 0.6 5.6
2020-Jan-22 00:48 351 5 gusting 7 0.6 5.6
2020-Jan-22 00:42 352 6 gusting 7 0.6 5.6
2020-Jan-22 00:36 355 6 gusting 7 0.6 5.6
2020-Jan-22 00:30 354 6 gusting 9 0.6 5.6
2020-Jan-22 00:24 348 6 gusting 8 0.6 5.6
2020-Jan-22 00:18 352 7 gusting 10 0.6 5.6
2020-Jan-22 00:12 350 7 gusting 9 0.6 5.6
2020-Jan-22 00:06 347 7 gusting 10 0.6 5.6
2020-Jan-22 00:00 347 7 gusting 9 0.6 5.6
2020-Jan-21 23:54 347 7 gusting 10 0.6 5.6
2020-Jan-21 23:48 344 7 gusting 9 0.6 5.6
2020-Jan-21 23:42 348 6 gusting 9 0.6 5.6
2020-Jan-21 23:36 346 7 gusting 9 0.6 5.6
2020-Jan-21 23:30 349 6 gusting 8 0.6 5.6
2020-Jan-21 23:24 344 6 gusting 9 0.6 5.6
2020-Jan-21 23:18 346 6 gusting 7 0.6 5.6
2020-Jan-21 23:12 343 5 gusting 7 0.6 5.6
2020-Jan-21 23:06 343 5 gusting 6 0.6 5.6
2020-Jan-21 23:00 342 5 gusting 6 0.6 5.6
2020-Jan-21 22:54 345 5 gusting 5 0.6 5.6
2020-Jan-21 22:48 001 4 gusting 6 0.6 5.6
2020-Jan-21 22:42 002 4 gusting 6 0.6 5.6
2020-Jan-21 22:36 008 4 gusting 6 1.1 5.6
2020-Jan-21 22:30 004 5 gusting 6 1.1 5.6
2020-Jan-21 22:24 355 5 gusting 6 1.1 5.6
2020-Jan-21 22:18 001 6 gusting 7 1.1 5.6
2020-Jan-21 22:12 357 6 gusting 7 1.1 5.6
2020-Jan-21 22:06 002 7 gusting 9 1.1 6.1
2020-Jan-21 22:00 001 7 gusting 10 1.1 6.1
2020-Jan-21 21:54 007 9 gusting 13 1.1 6.1
2020-Jan-21 21:48 359 8 gusting 13 1.1 6.1
2020-Jan-21 21:42 008 10 gusting 13 1.1 6.1
2020-Jan-21 21:36 007 9 gusting 13 1.1 6.1
2020-Jan-21 21:30 013 8 gusting 12 1.1 6.1
2020-Jan-21 21:24 010 9 gusting 11 1.1 6.1
2020-Jan-21 21:18 014 9 gusting 12 1.1 6.1
2020-Jan-21 21:12 007 9 gusting 13 1.1 6.1
2020-Jan-21 21:06 015 8 gusting 11 1.1 6.1
2020-Jan-21 21:00 013 6 gusting 10 1.1 6.1
2020-Jan-21 20:54 002 7 gusting 10 1.1 6.1
2020-Jan-21 20:48 358 4 gusting 9 1.1 6.1
2020-Jan-21 20:42 010 6 gusting 9 1.1 6.1
2020-Jan-21 20:36 007 9 gusting 11 0.6 6.1
2020-Jan-21 20:30 006 9 gusting 12 0.6 6.1
2020-Jan-21 20:24 003 9 gusting 12 0.6 6.1
2020-Jan-21 20:18 003 6 gusting 10 0.6 6.1
2020-Jan-21 20:12 007 9 gusting 11 0.6 6.1
2020-Jan-21 20:06 010 7 gusting 11 0.6 6.1
2020-Jan-21 20:00 004 9 gusting 13 0.6 6.1
2020-Jan-21 19:54 016 5 gusting 11 0.6 6.1
2020-Jan-21 19:48 014 8 gusting 12 0.6 6.1
2020-Jan-21 19:42 001 8 gusting 10 0.6 6.1
2020-Jan-21 19:36 355 7 gusting 13 0.6 6.1
2020-Jan-21 19:30 032 9 gusting 12 -0.0 6.1
2020-Jan-21 19:24 004 9 gusting 13 -0.0 6.1
2020-Jan-21 19:18 003 9 gusting 12 -0.0 6.1
2020-Jan-21 19:12 007 7 gusting 11 -0.0 6.1
2020-Jan-21 19:06 006 8 gusting 12 -0.0 6.1
2020-Jan-21 19:00 -0.0 6.1
2020-Jan-21 18:54 012 8 gusting 13 -0.0 6.1
2020-Jan-21 18:48 015 8 gusting 11 -0.0 6.1
2020-Jan-21 18:42 007 9 gusting 13 -0.6 6.1
2020-Jan-21 18:36 004 8 gusting 13 -0.6 6.1
2020-Jan-21 18:30 348 6 gusting 13 -0.0 6.1
2020-Jan-21 18:24 004 9 gusting 13 -0.6 6.1
2020-Jan-21 18:18 008 11 gusting 14 -0.6 6.1
2020-Jan-21 18:12 006 9 gusting 13 -0.6 6.1
2020-Jan-21 18:06 010 10 gusting 13 -0.6 6.1
2020-Jan-21 18:00 008 9 gusting 13 -1.1 6.1
2020-Jan-21 17:54 008 11 gusting 14 -1.1 6.1
2020-Jan-21 17:48 013 11 gusting 16 -1.1 6.1
2020-Jan-21 17:12 017 13 gusting 15 -1.7 6.1
2020-Jan-21 17:06 008 11 gusting 16 -1.7 6.1
2020-Jan-21 17:00 350 18 gusting 20 -1.7 6.1
2020-Jan-21 16:54 353 16 gusting 19 -1.7 6.1
2020-Jan-21 16:48 347 16 gusting 19 -1.7 6.1
2020-Jan-21 16:42 357 13 gusting 19 -1.7 6.1
2020-Jan-21 16:36 004 13 gusting 19 -1.7 6.1
2020-Jan-21 16:30 358 10 gusting 18 -1.7 5.6
2020-Jan-21 16:24 007 14 gusting 22 -1.7 5.6
2020-Jan-21 16:18 356 13 gusting 18 -1.7 5.6
2020-Jan-21 16:12 346 13 gusting 17 -1.7 5.6
2020-Jan-21 16:06 008 13 gusting 16 -1.7 5.6
2020-Jan-21 16:00 358 15 gusting 19 -2.2 5.6
2020-Jan-21 15:54 354 13 gusting 19 -2.2 5.6
2020-Jan-21 15:30 012 13 gusting 19 -2.2 5.6
2020-Jan-21 15:24 011 15 gusting 19 -2.2 5.6
2020-Jan-21 15:18 002 13 gusting 19 -2.2 5.6
2020-Jan-21 15:12 360 14 gusting 22 -2.2 5.6
2020-Jan-21 15:06 353 17 gusting 21 -2.8 5.6
2020-Jan-21 15:00 -2.8 5.6
2020-Jan-21 14:54 347 11 gusting 19 -2.8 5.6
2020-Jan-21 14:48 355 14 gusting 19 -3.3 5.6
2020-Jan-21 14:42 352 13 gusting 18 -3.3 5.6
2020-Jan-21 14:36 352 13 gusting 14 -3.3 5.6
2020-Jan-21 14:30 346 11 gusting 14 -3.3 5.6
2020-Jan-21 14:24 352 13 gusting 16 -3.3 5.6
2020-Jan-21 14:18 340 10 gusting 13 -3.3 5.6
2020-Jan-21 14:12 349 12 gusting 15 -3.3 5.6
2020-Jan-21 14:06 344 12 gusting 14 -3.3 5.6
2020-Jan-21 14:00 342 10 gusting 14 -3.3 5.6